Home   Weather   Daegu   Past weeks
Flag for South Korea

Past Weather in Daegu, South Korea — Yesterday and Last 2 Weeks

Now
61 °F

Partly sunny.


Feels Like: 61 °F
Forecast: 68 / 47 °F
Wind: 2 mph from North

Location: Taegu Ab

Current Time: Oct 16, 2019 at 12:06:12 pm

Latest Report: Oct 16, 2019 at 11:00 am


Visibility: N/A

Pressure: 30.33 "Hg

Humidity: 63%

Dew Point: 48 °F

Location of DaeguLocation

Past Weather in Daegu — Graph

°F

Daegu Temperature Yesterday

Maximum temperature yesterday: 66 °F (at 2:00 pm)
Minimum temperature yesterday: 50 °F (at 11:00 pm)
Average temperature yesterday: 59 °F

High & Low Weather Summary for the Past Weeks

 TemperatureHumidityPressure
High82 °F (Oct 4, 1:00 pm)100% (Oct 2, 6:10 am)30.39 "Hg (Oct 2, 6:10 am)
Low46 °F (Oct 9, 5:00 am)23% (Oct 9, 2:00 pm)29.36 "Hg (Oct 3, 3:25 am)
Average65 °F72%30.04 "Hg
* Reported Oct 1 10:00 am — Oct 16 10:00 am, Daegu. Weather by CustomWeather, © 2019

Note: Actual official high and low records may vary slightly from our data, if they occured in-between our weather recording intervals... More about our weather records

Advertising

Daegu Weather History for the Previous 24 Hours

Scroll right to see more
 ConditionsComfort  
Time TempWeatherWind HumidityBarometerVisibility
10:00 am
Wed, Oct 16
55 °FScattered clouds.2 mph77%30.36 "HgN/A
9:00 am52 °FScattered clouds.1 mph88%30.36 "HgN/A
8:00 am48 °FPassing clouds.1 mph94%30.36 "Hg6 mi
7:00 am46 °FScattered clouds.3 mph93%30.36 "Hg6 mi
6:00 am46 °FClear.2 mph93%30.33 "Hg10 mi
5:00 am46 °FClear.1 mph93%30.36 "Hg10 mi
4:00 am46 °FClear.1 mph93%30.07 "Hg10 mi
3:00 am48 °FClear.1 mph87%30.39 "Hg10 mi
2:00 am48 °FClear.1 mph94%30.39 "Hg10 mi
1:00 am50 °FClear.1 mph88%30.36 "Hg10 mi
12:00 am52 °FClear.1 mph88%30.39 "Hg10 mi
11:00 pm
Tue, Oct 15
50 °FClear.3 mph88%30.39 "Hg10 mi
10:00 pm54 °FPassing clouds.2 mph82%30.39 "HgN/A
9:00 pm57 °FPassing clouds.3 mph72%30.36 "HgN/A
8:00 pm57 °FPassing clouds.6 mph72%30.36 "HgN/A
7:00 pm57 °FPassing clouds.8 mph72%30.36 "HgN/A
6:00 pm61 °FPassing clouds.9 mph63%30.36 "HgN/A
5:00 pm63 °FPartly sunny.12 mph59%30.33 "HgN/A
4:00 pm63 °FPartly sunny.13 mph59%30.33 "HgN/A
3:00 pm64 °FPartly sunny.15 mph56%30.33 "HgN/A
2:00 pm66 °FBroken clouds.13 mph52%30.36 "HgN/A
1:00 pm64 °FBroken clouds.12 mph56%30.39 "HgN/A
12:00 pm63 °FPartly sunny.7 mph59%30.39 "HgN/A
Weather by CustomWeather, © 2019

See weather overview